EW5171 Grenaa DK current weather conditions

sailwx.info

Wind from 239 at 4 knots gusting 13

Air temperature 8.3° C
Dewpoint 7.6° C

Last reported at 2019-Dec-06 15:02 UTC.
Time now 2019-Dec-06 15:46 UTC

Location: N 56°24' E 010°55'.
View on Google Maps.

See reports from other nearby stations

  
Tides and Currents Weather Stations Pressure Air Temp Water Temp Dewpoint Dewpoint Depression Visibility Wind Speed Wind Dir Waves Ship Positions
date/time (UTC)wind fromknots sea level pressurealtimeterstation pressurevisibilityair tempwater tempwave heightnotes
2019-Dec-06 15:02 239 4 gusting 13 8.3
2019-Dec-06 14:46 176 5 gusting 13 8.3
2019-Dec-06 14:32 189 3 gusting 14 8.3
2019-Dec-06 14:16 188 4 gusting 9 8.9
2019-Dec-06 14:02 256 0 gusting 6 8.9
2019-Dec-06 13:46 151 2 gusting 10 8.9
2019-Dec-06 13:32 224 2 gusting 12 8.9
2019-Dec-06 13:18 314 4 gusting 12 9.4
2019-Dec-06 13:01 197 4 gusting 13 10.0
2019-Dec-06 12:46 238 5 gusting 13 10.0
2019-Dec-06 12:31 259 4 gusting 8 10.0
2019-Dec-06 12:16 196 10.0
2019-Dec-06 12:00 246 1 gusting 8 10.0
2019-Dec-06 11:46 202 4 gusting 9 10.0
2019-Dec-06 11:32 205 10.0
2019-Dec-06 11:16 176 2 gusting 6 10.6
2019-Dec-06 11:01 252 1 gusting 5 10.6
2019-Dec-06 10:46 227 1 gusting 8 10.6
2019-Dec-06 10:31 213 10.6
2019-Dec-06 10:16 300 0 gusting 7 10.6
2019-Dec-06 10:00 166 0 gusting 11 10.6
2019-Dec-06 09:46 276 4 gusting 11 10.0
2019-Dec-06 09:30 194 10.0
2019-Dec-06 09:15 202 2 gusting 7 10.0
2019-Dec-06 08:45 203 1 gusting 9 10.0
2019-Dec-06 08:30 162 1 gusting 9 10.0
2019-Dec-06 08:15 282 10.0
2019-Dec-06 08:00 254 2 gusting 9 9.4
2019-Dec-06 07:45 151 3 gusting 7 9.4
2019-Dec-06 07:30 293 3 gusting 16 10.0
2019-Dec-06 07:15 248 5 gusting 13 10.0
2019-Dec-06 07:00 284 5 gusting 13 10.0
2019-Dec-06 06:45 204 4 gusting 11 10.0
2019-Dec-06 06:30 304 5 gusting 10 10.0
2019-Dec-06 06:15 208 4 gusting 14 9.4
2019-Dec-06 06:00 258 4 gusting 10 9.4
2019-Dec-06 05:45 262 2 gusting 13 9.4
2019-Dec-06 05:30 250 5 gusting 16 9.4
2019-Dec-06 05:15 276 4 gusting 12 8.9
2019-Dec-06 05:03 217 4 gusting 14 8.9
2019-Dec-06 04:47 282 6 gusting 12 8.9
2019-Dec-06 04:32 161 4 gusting 14 8.9
2019-Dec-06 04:16 236 2 gusting 13 8.9
2019-Dec-06 04:02 221 6 gusting 16 8.9
2019-Dec-06 03:46 217 6 gusting 13 8.9
2019-Dec-06 03:32 261 3 gusting 11 8.3
2019-Dec-06 03:16 300 5 gusting 14 8.3
2019-Dec-06 03:01 256 3 gusting 13 8.3
2019-Dec-06 02:47 159 4 gusting 19 7.8
2019-Dec-06 02:31 236 6 gusting 13 7.8
2019-Dec-06 02:16 226 4 gusting 15 7.8
2019-Dec-06 02:01 232 6 gusting 15 7.2
2019-Dec-06 01:46 194 6 gusting 18 7.2
2019-Dec-06 01:31 219 6 gusting 18 7.2
2019-Dec-06 01:16 227 6 gusting 16 7.2
2019-Dec-06 01:00 192 6 gusting 14 7.2
2019-Dec-06 00:45 193 6 gusting 21 7.2
2019-Dec-06 00:30 198 6 gusting 19 7.2
2019-Dec-06 00:15 213 6 gusting 14 7.2
2019-Dec-06 00:00 234 7 gusting 23 7.2
2019-Dec-05 23:45 215 6 gusting 18 7.2
2019-Dec-05 23:30 221 6 gusting 18 7.2
2019-Dec-05 23:15 212 4 gusting 20 7.2
2019-Dec-05 22:47 213 6 gusting 13 7.2
2019-Dec-05 22:31 128 6 gusting 16 7.2
2019-Dec-05 22:16 199 4 gusting 16 7.2
2019-Dec-05 22:01 201 6 gusting 15 7.2
2019-Dec-05 21:46 228 4 gusting 12 7.2
2019-Dec-05 21:31 211 7.2
2019-Dec-05 21:16 179 3 gusting 15 7.2
2019-Dec-05 21:01 270 6 gusting 19 7.2
2019-Dec-05 20:46 207 6 gusting 15 7.2
2019-Dec-05 20:31 235 6 gusting 17 7.2
2019-Dec-05 20:16 219 5 gusting 15 7.2
2019-Dec-05 20:00 273 3 gusting 13 7.2
2019-Dec-05 19:46 197 5 gusting 13 7.2
2019-Dec-05 19:30 204 4 gusting 13 7.2
2019-Dec-05 19:15 206 5 gusting 11 7.2
2019-Dec-05 19:00 178 1 gusting 13 7.2
2019-Dec-05 18:45 219 5 gusting 13 7.2
2019-Dec-05 18:30 186 4 gusting 11 7.2
2019-Dec-05 18:15 232 3 gusting 10 7.2
2019-Dec-05 18:00 163 3 gusting 13 7.2
2019-Dec-05 17:45 207 4 gusting 12 7.2
2019-Dec-05 17:30 178 1 gusting 13 7.2
2019-Dec-05 17:15 191 2 gusting 9 7.2
2019-Dec-05 17:00 234 0 gusting 14 7.2
2019-Dec-05 16:45 217 5 gusting 10 7.2
2019-Dec-05 16:30 233 4 gusting 13 7.2
2019-Dec-05 16:15 230 4 gusting 10 7.2
2019-Dec-05 16:02 208 5 gusting 13 7.2
2019-Dec-05 15:47 229 3 gusting 11 7.2
2019-Dec-05 15:32 244 5 gusting 13 7.8
2019-Dec-05 15:17 257 1 gusting 10 7.2
2019-Dec-05 15:02 204 4 gusting 10 7.2
2019-Dec-05 14:48 194 2 gusting 10 7.8
2019-Dec-05 14:31 225 3 gusting 7 7.8
2019-Dec-05 14:18 189 2 gusting 11 7.8
2019-Dec-05 14:01 181 1 gusting 10 7.8
2019-Dec-05 13:47 216 1 gusting 9 7.8
2019-Dec-05 13:31 285 3 gusting 7 7.8
2019-Dec-05 13:17 250 7.8
2019-Dec-05 13:01 223 1 gusting 6 7.8
2019-Dec-05 12:47 232 1 gusting 8 8.3
2019-Dec-05 12:30 263 2 gusting 12 8.3
2019-Dec-05 12:16 216 4 gusting 9 8.3
2019-Dec-05 12:00 215 1 gusting 9 8.3
2019-Dec-05 11:45 270 1 gusting 13 8.3
2019-Dec-05 11:31 259 2 gusting 8 8.3
2019-Dec-05 11:15 178 2 gusting 8 8.3
2019-Dec-05 11:00 214 1 gusting 10 8.3
2019-Dec-05 10:45 270 2 gusting 7 7.8
2019-Dec-05 10:30 221 2 gusting 6 7.2
2019-Dec-05 10:15 249 1 gusting 9 7.2
2019-Dec-05 10:00 186 4 gusting 9 7.2
2019-Dec-05 09:45 214 3 gusting 9 7.2
2019-Dec-05 09:17 193 1 gusting 9 6.7
2019-Dec-05 09:02 191 2 gusting 10 6.7
2019-Dec-05 08:46 215 3 gusting 10 6.7
2019-Dec-05 08:31 243 3 gusting 11 6.7
2019-Dec-05 08:17 198 3 gusting 9 6.7
2019-Dec-05 08:02 217 3 gusting 11 6.7
2019-Dec-05 07:46 167 2 gusting 11 6.7
2019-Dec-05 07:31 204 2 gusting 9 6.7
2019-Dec-05 07:16 194 3 gusting 8 6.7
2019-Dec-05 07:01 209 5 gusting 10 6.7
2019-Dec-05 06:31 260 6.1
2019-Dec-05 06:16 197 6.1
2019-Dec-05 06:01 200 6.1
2019-Dec-05 05:46 268 1 gusting 6 6.1
2019-Dec-05 05:31 311 0 gusting 8 6.1
2019-Dec-05 05:15 257 6.1
2019-Dec-05 05:01 230 1 gusting 7 6.1
2019-Dec-05 04:46 205 1 gusting 6 6.1
2019-Dec-05 04:31 196 5.6
2019-Dec-05 04:16 224 5.6
2019-Dec-05 04:01 196 1 gusting 6 5.6
2019-Dec-05 03:46 209 5.0
2019-Dec-05 03:30 194 5.0
2019-Dec-05 03:15 189 5.0
2019-Dec-05 03:01 199 5.0
2019-Dec-05 02:46 175 5.0
2019-Dec-05 02:30 210 5.0
2019-Dec-05 02:15 186 5.0
2019-Dec-05 02:00 236 5.0
2019-Dec-05 01:45 254 5.0
2019-Dec-05 01:30 210 0 gusting 6 5.0
2019-Dec-05 01:15 221 0 gusting 6 5.0
2019-Dec-05 01:00 248 5.0
2019-Dec-05 00:45 205 5.0
2019-Dec-05 00:30 272 5.0
2019-Dec-05 00:15 211 5.0
2019-Dec-05 00:00 228 0 gusting 5 5.0
2019-Dec-04 23:45 228 1 gusting 8 5.0
2019-Dec-04 23:32 250 5.6
2019-Dec-04 23:17 222 5.6
2019-Dec-04 23:02 252 0 gusting 5 5.6
2019-Dec-04 22:46 220 5.6
2019-Dec-04 22:32 213 6.1
2019-Dec-04 22:16 211 6.1
2019-Dec-04 22:02 207 3 gusting 7 6.1
2019-Dec-04 21:47 211 3 gusting 8 5.6
2019-Dec-04 21:31 259 0 gusting 7 5.0
2019-Dec-04 21:16 242 4.4
2019-Dec-04 21:02 231 3.9
2019-Dec-04 20:46 238 3.9
2019-Dec-04 20:31 247 3.9
2019-Dec-04 20:16 231 4.4
2019-Dec-04 20:02 173 3.9
2019-Dec-04 19:46 207 3.3
2019-Dec-04 19:31 207 3.9
2019-Dec-04 19:16 221 3.9
2019-Dec-04 19:01 207 4.4
2019-Dec-04 18:46 222 4.4
2019-Dec-04 18:32 268 4.4
2019-Dec-04 18:16 257 3.9
2019-Dec-04 18:01 225 3.9
2019-Dec-04 17:46 217 3.9
2019-Dec-04 17:31 202 4.4
2019-Dec-04 17:16 156 4.4
2019-Dec-04 17:01 255 5.0
2019-Dec-04 16:46 217 5.0
2019-Dec-04 16:31 192 5.0
2019-Dec-04 16:15 207 5.0
2019-Dec-04 16:04 236 5.0
2019-Dec-04 15:46 211 5.0
2019-Dec-04 15:31 206 5.6
2019-Dec-04 15:15 242 5.6
2019-Dec-04 15:00 222 6.1